Regional Weather Roundup
Issued by NWS Sterling, VA

Home | Current Version | Previous Version | Graphics & Text | Print | Product List | Glossary On
Versions: 1 2 3 4 5 6 7 8 9 10 11 12 13 14 15 16 17 18 19 20 21 22 23 24 25 26 27 28
000
ASUS41 KLWX 230410
RWRLWX

REGIONAL WEATHER ROUNDUP
NATIONAL WEATHER SERVICE BALTIMORE MD/WASHINGTON DC
1200 AM EDT WED APR 23 2014

Note: "FAIR" indicates few or no clouds below 12,000 feet
with no significant weather and/or obstructions to visibility.
 TC=TEMPERATURE CELSIUS

 * =Non NWS site. Station does not report precipitation (e.g. rain,
    snow, etc.), thunder, or fog.

DCZ001-MDZ009-015-VAZ040>042-051-053>054-230500-
WASHINGTON METRO

CITY           SKY/WX    TMP DP  RH WIND       PRES   REMARKS
WASHINGTON NAT MOCLDY    63  50  62 NW15G21   29.66R
DULLES         MOCLDY    57  47  69 N15G23    29.68R
ANDREWS AFB    PTCLDY    58  51  78 NW8       29.65R
FT BELVOIR     CLEAR     60  52  74 NW10      29.66R
QUANTICO       CLEAR     60  50  69 N10       29.67R
COLLEGE PARK*  PTCLDY    59  52  77 NW12      29.65R
LEESBURG*      PTCLDY    57  46  67 N15G23    29.71R
MANASSAS*      PTCLDY    59  50  72 N14G21    29.68R
GAITHERSBURG*  CLOUDY    55  45  67 NW8       29.70R

$$

MDZ006>007-011-014-230500-
BALTIMORE METRO

CITY           SKY/WX    TMP DP  RH WIND       PRES   REMARKS
BWI AIRPORT    MOCLDY    57  53  86 NW5       29.64R
MD SCIENCE CTR   N/A     61  51  70 MISG      29.65R
MARTIN STATE   DRIZZLE   59  55  88 W8        29.65R
ANNAPOLIS      PTCLDY    59  53  80 NW8       29.63R
FORT MEADE*    MOCLDY    55  50  82 NW3       29.67S

$$

MDZ012-015-019>023-230500-
MARYLAND EASTERN SHORE

CITY           SKY/WX    TMP DP  RH WIND       PRES   REMARKS
OCEAN CITY     MOCLDY    57  51  80 CALM      29.60F
SALISBURY      MOCLDY    59  52  77 CALM      29.61R
CAMBRIDGE*     PTCLDY    59  52  77 CALM      29.62R
EASTON*        PTCLDY    58  53  81 CALM      29.65S

$$

MDZ017>025-230500-
SOUTHERN MARYLAND

CITY           SKY/WX    TMP DP  RH WIND       PRES   REMARKS
PATUXENT RIVER CLOUDY    59  54  83 NW3       29.62S
ST INIGOES     MOCLDY    59  51  75 NW5       29.64R
LEONARDTOWN*   PTCLDY    57  52  82 CALM      29.65R

$$

MDZ003>005-230500-
NORTH CENTRAL MARYLAND

CITY           SKY/WX    TMP DP  RH WIND       PRES   REMARKS
FREDERICK*     PTCLDY    55  45  67 NW16G22   29.72R
HAGERSTOWN APT CLEAR     50  36  58 NW14      29.72R
WESTMINSTER*   PTCLDY    54  45  71 NW12G21   29.69R

$$

MDZ501>502-230500-
WESTERN MARYLAND

CITY           SKY/WX    TMP DP  RH WIND       PRES   REMARKS
OAKLAND*       MOCLDY    39  34  81 NW13G21   29.76S
CUMBERLAND*    CLOUDY    52  36  54 N9G18     29.80S

$$

VAZ025>031-230500-
SHENANDOAH VALLEY

CITY           SKY/WX    TMP DP  RH WIND       PRES   REMARKS
WINCHESTER*    PTCLDY    54  41  62 NW15G22   29.71S
STAUNTON*      CLEAR     60  33  37 NW12      29.71R

$$

WVZ021-048>050-054>055-230500-
EASTERN WEST VIRGINIA PANHANDLE

CITY           SKY/WX    TMP DP  RH WIND       PRES   REMARKS
MARTINSBURG    CLOUDY    54  39  57 N8G18     29.73R
PETERSBURG*    MOCLDY    61  47  61 NW13      29.75R

$$

VAZ036>039-050-230500-
CENTRAL FOOTHILLS

CITY           SKY/WX    TMP DP  RH WIND       PRES   REMARKS
CHARLOTTESVILL PTCLDY    65  45  48 NW6       29.65S
CULPEPER*      PTCLDY    63  50  63 N16       29.68R

$$

VAZ055>057-230500-
NORTH AND CENTRAL PIEDMONT

CITY           SKY/WX    TMP DP  RH WIND       PRES   REMARKS
FREDERICKSBRG* CLEAR     63  52  67 N9        29.65R
STAFFORD*      CLEAR     59  53  80 N8        29.71R

$$

NCZ024-NYZ072-PAZ021-071-VAZ022-071-230500-
OTHER REGIONAL OBSERVATIONS

CITY           SKY/WX    TMP DP  RH WIND       PRES   REMARKS
NEW YORK CITY  CLEAR     62  47  57 VRB5      29.53F
PHILADELPHIA   MOCLDY    57  48  72 W10       29.60R
PITTSBURGH     CLOUDY    47  35  63 NW15      29.82R
ROANOKE        MOCLDY    66  42  41 NW15      29.74R
RICHMOND       MOCLDY    65  54  67 CALM      29.63R
RALEIGH        PTCLDY    63  54  72 SW7       29.71S

$$

ANZ530>537-230500-
MARINE OBSERVATIONS

STATION/POSITION TIME  TEMP    WIND        PRES
                       AIR SEA DIR/SP/G
                 (UTC) (F)     (DEG/KT/KT) (MB)
THOMAS PT LIGHT  0400   60 53  310/  9/ 10 1003.7R
BALT KEY BRIDGE  0400   60     300/ 11/ 13 1003.4R
COVE POINT       0400   60      10/  5/  6 1003.1F
LEWISETTA        0400   65 59  340/  7/ 10 1003.1R
SOLOMONS ISLAND  0400      56                N/A
PINEY POINT      0400           10/  5/  6   N/A

$$




USA.gov is the U.S. government's official web portal to all federal, state and local government web resources and services.